Location: Newark
(35.8582°N, 82.7116°W)
Time: 18:01:57
(UTC+00:00)

N. Korean satellite - Visible Passes

Search period start: 14 October 2019 00:00
Search period end: 24 October 2019 00:00
Orbit: 455 x 508 km, 97.2° (Epoch: 14 October)

Date Brightness Start Highest point End Pass type
(mag) Time Alt. Az. Time Alt. Az. Time Alt. Az.
14 Oct 9.9 10:34:24 10° NE 10:36:48 17° E 10:39:14 10° SE visible
15 Oct 10.6 23:50:26 10° WSW 23:51:01 10° W 23:51:36 10° W visible
16 Oct 9.4 23:22:49 10° SSW 23:25:35 23° W 23:28:21 10° NW visible
17 Oct 8.9 10:51:13 10° NE 10:54:24 29° E 10:57:36 10° SSE visible
18 Oct 10.2 10:27:04 10° ENE 10:29:00 14° E 10:30:56 10° SE visible
19 Oct 10.2 23:41:27 10° WSW 23:43:09 13° W 23:44:53 10° WNW visible
20 Oct 7.6 11:08:23 10° NNE 11:11:56 52° E 11:15:31 10° S visible
20 Oct 8.9 23:14:43 10° SSW 23:17:43 29° W 23:20:45 10° NW visible
21 Oct 9.4 10:43:36 10° NE 10:46:35 23° E 10:49:35 10° SSE visible
22 Oct 10.4 10:20:02 10° ENE 10:21:08 11° E 10:22:15 10° ESE visible
23 Oct 9.9 23:32:58 10° SW 23:35:15 17° W 23:37:33 10° NW visible
